(386005) = 2007 DT5

Discovered at Kitt Peak on 2007-02-17 by Spacewatch.

Orbit

Orbit type: Main Belt

Note: WebGL enabled browser required.

epoch2023-09-13.0
epoch JD2460200.5
perihelion date2020-08-23.08516
perihelion JD2459084.58516
argument of perihelion (°)286.18336
ascending node (°)141.02816
inclination (°)5.21016
eccentricity0.1168353
perihelion distance (AU)2.0401128
Tisserand w.r.t. Jupiter3.6
ΔV w.r.t. Earth (km/sec)9.0
semimajor axis (AU)2.3100026
mean anomaly (°)313.26812
mean daily motion (°/day)0.28072760
aphelion distance (AU)2.580
period (years)3.51
P-vector [x]0.38483451
P-vector [y]0.87772452
P-vector [z]0.28548566
Q-vector [x]-0.92121684
Q-vector [y]0.34612225
Q-vector [z]0.17764832
absolute magnitude18.02
phase slope0.15
uncertainty0
referenceMPEC 2024-A65
observations used269
oppositions12
arc length (days)9266
first opposition used1998
last opposition used2024
residual rms (arc-secs)0.63
perturbers coarse indicatorM-v
perturbers precise indicator003Ek
first observation date used1998-08-23.0
last observation date used2024-01-05.0
computer nameMPCLINUX
JD of orbit computation2456760.638382
perihelion JD uncertainty (days)2.5578E-04
argument of perihelion uncertainty (°)1.0201E-04
ascending node uncertainty (°)5.9557E-05
inclination uncertainty (°)1.2783E-05
eccentricity uncertainty 7.6715E-08
perihelion distance uncertainty (AU)1.7344E-07
Minimum Orbit Intersection Distances (in AU)
for orbit epoch: 2460200.5, reference: E2023-XQ1
Mercury1.73357
Venus1.32211
Earth1.0602
Mars0.5018
Jupiter2.66817
Saturn6.9826
Uranus16.0741
Neptune27.6987

Observations

270 total observations over interval: 1998 08 23.21642 – 2024 01 05.258164
These data are available for download (format description).

Date (UT) J2000 RA J2000 Dec Magn Location Ref
1998 08 23.21642 20 48 44.47 -17 20 10.8 21.5 V 691 – Steward Observatory, Kitt Peak-Spacewatch MPS 348047
1998 08 23.23810 20 48 43.37 -17 20 18.8 21.6 V 691 – Steward Observatory, Kitt Peak-Spacewatch MPS 348047
1998 08 23.25993 20 48 42.25 -17 20 25.7 21.1 V 691 – Steward Observatory, Kitt Peak-Spacewatch MPS 348047
2006 11 23.46139 08 53 19.46 +13 13 45.5 21.2 V G96 – Mt. Lemmon Survey MPS 347149
2006 11 23.46814 08 53 19.78 +13 13 44.2 21.4 V G96 – Mt. Lemmon Survey MPS 347149
2006 11 23.47484 08 53 20.04 +13 13 43.5 21.9 V G96 – Mt. Lemmon Survey MPS 347149
2006 11 23.48157 08 53 20.40 +13 13 41.9 21.4 V G96 – Mt. Lemmon Survey MPS 347149
2007 01 27.24072 08 34 33.49 +16 14 54.2 20.2 V G96 – Mt. Lemmon Survey MPS 347149
2007 01 27.24838 08 34 32.98 +16 14 57.6 20.0 V G96 – Mt. Lemmon Survey MPS 347149
2007 01 27.25310 08 34 32.67 +16 14 59.8 20.4 V 691 – Steward Observatory, Kitt Peak-Spacewatch MPS 347149
2007 01 27.25611 08 34 32.52 +16 15 00.7 20.2 V G96 – Mt. Lemmon Survey MPS 347149
2007 01 27.26382 08 34 32.01 +16 15 03.9 20.3 V G96 – Mt. Lemmon Survey MPS 347149
2007 01 27.27087 08 34 31.54 +16 15 07.0 20.3 V 691 – Steward Observatory, Kitt Peak-Spacewatch MPS 347149
2007 01 27.28862 08 34 30.40 +16 15 14.6 20.4 V 691 – Steward Observatory, Kitt Peak-Spacewatch MPS 347149
2007 02 17.12057 08 15 45.61 +18 31 16.7   691 – Steward Observatory, Kitt Peak-Spacewatch MPS 200495
2007 02 17.14312 08 15 44.62 +18 31 24.5   691 – Steward Observatory, Kitt Peak-Spacewatch MPS 200495
2007 02 17.16567 08 15 43.65 +18 31 32.1   691 – Steward Observatory, Kitt Peak-Spacewatch MPS 200495
2007 02 19.12406 08 14 27.55 +18 42 11.1   691 – Steward Observatory, Kitt Peak-Spacewatch MPS 200495
2007 02 19.14664 08 14 26.67 +18 42 18.8   691 – Steward Observatory, Kitt Peak-Spacewatch MPS 200495
2007 02 19.16980 08 14 25.73 +18 42 26.3   691 – Steward Observatory, Kitt Peak-Spacewatch MPS 200495
2007 02 21.11781 08 13 17.26 +18 52 31.1 21.6 V 691 – Steward Observatory, Kitt Peak-Spacewatch MPS 200495
2007 02 21.14387 08 13 16.35 +18 52 39.4 21.3 V 691 – Steward Observatory, Kitt Peak-Spacewatch MPS 200495
2007 02 21.16965 08 13 15.43 +18 52 47.4 21.1 V 691 – Steward Observatory, Kitt Peak-Spacewatch MPS 200495
2007 02 23.12525 08 12 14.25 +19 02 22.6 21.1 V 691 – Steward Observatory, Kitt Peak-Spacewatch MPS 201605
2007 02 23.14156 08 12 13.75 +19 02 27.8 20.9 V 691 – Steward Observatory, Kitt Peak-Spacewatch MPS 201605
2007 02 23.15786 08 12 13.20 +19 02 33.0 20.5 V 691 – Steward Observatory, Kitt Peak-Spacewatch MPS 201605
2009 10 02.29266 02 12 00.28 +04 30 17.9 20.6 V G96 – Mt. Lemmon Survey MPS 347149
2009 10 02.30008 02 12 00.00 +04 30 14.8 20.7 V G96 – Mt. Lemmon Survey MPS 347149
2009 10 02.30767 02 11 59.71 +04 30 11.4 20.9 V G96 – Mt. Lemmon Survey MPS 347149
2009 10 02.31534 02 11 59.46 +04 30 08.7 20.4 V G96 – Mt. Lemmon Survey MPS 347149
2009 10 22.29500 01 56 01.17 +02 07 31.4 20.0 V G96 – Mt. Lemmon Survey MPS 347149
2009 10 22.30226 01 56 00.74 +02 07 28.5 20.2 V G96 – Mt. Lemmon Survey MPS 347150
2009 10 22.30943 01 56 00.31 +02 07 25.8 20.3 V G96 – Mt. Lemmon Survey MPS 347150
2009 10 22.31657 01 55 59.91 +02 07 23.1 20.3 V G96 – Mt. Lemmon Survey MPS 347150
2011 04 01.43196 13 13 56.85 -00 12 56.6 21.4 V G96 – Mt. Lemmon Survey MPS 375580
2011 04 01.43994 13 13 56.38 -00 12 53.6 20.7 V G96 – Mt. Lemmon Survey MPS 375581
2011 04 01.44799 13 13 55.92 -00 12 50.0 20.8 V G96 – Mt. Lemmon Survey MPS 375581
2011 04 01.45593 13 13 55.45 -00 12 45.2 21.0 V G96 – Mt. Lemmon Survey MPS 375581
2013 12 26.39330 08 41 05.44 +14 00 52.9 20.7 V G96 – Mt. Lemmon Survey MPS 492033
2013 12 26.39916 08 41 05.28 +14 00 54.0 21.7 V G96 – Mt. Lemmon Survey MPS 492033
2013 12 26.40501 08 41 05.07 +14 00 55.2 21.9 V G96 – Mt. Lemmon Survey MPS 492033
2013 12 26.41085 08 41 04.93 +14 00 56.1 21.2 V G96 – Mt. Lemmon Survey MPS 492033
2013 12 28.33583 08 40 02.40 +14 08 07.2 20.7 V 691 – Steward Observatory, Kitt Peak-Spacewatch MPS 493450
2013 12 28.35357 08 40 01.74 +14 08 11.5 20.5 V 691 – Steward Observatory, Kitt Peak-Spacewatch MPS 493450
2013 12 28.37132 08 40 01.07 +14 08 15.7 20.7 V 691 – Steward Observatory, Kitt Peak-Spacewatch MPS 493450
2013 12 31.35753 08 38 09.59 +14 20 44.6 20.7 V 691 – Steward Observatory, Kitt Peak-Spacewatch MPS 493450
2013 12 31.37526 08 38 08.83 +14 20 49.4 20.9 V 691 – Steward Observatory, Kitt Peak-Spacewatch MPS 493450
2013 12 31.39300 08 38 08.09 +14 20 54.2 20.5 V 691 – Steward Observatory, Kitt Peak-Spacewatch MPS 493450
2013 12 31.54715 08 38 01.791 +14 21 36.91 20.6 w F51 – Pan-STARRS 1, Haleakala MPS 493450
2013 12 31.56172 08 38 01.156 +14 21 40.76 20.4 w F51 – Pan-STARRS 1, Haleakala MPS 493450
2013 12 31.57635 08 38 00.520 +14 21 44.61 20.6 w F51 – Pan-STARRS 1, Haleakala MPS 493450
2013 12 31.59097 08 37 59.896 +14 21 48.50 20.5 w F51 – Pan-STARRS 1, Haleakala MPS 493450
2014 01 01.30658 08 37 30.83 +14 25 02.2 20.5 V 691 – Steward Observatory, Kitt Peak-Spacewatch MPS 493450
2014 01 01.32430 08 37 30.01 +14 25 07.1 20.5 V 691 – Steward Observatory, Kitt Peak-Spacewatch MPS 493450
2014 01 01.34203 08 37 29.26 +14 25 12.2 20.6 V 691 – Steward Observatory, Kitt Peak-Spacewatch MPS 493450
2014 02 22.24306 07 53 33.78 +19 31 43.6 21.1 V G96 – Mt. Lemmon Survey MPS 503979
2014 02 22.24915 07 53 33.62 +19 31 44.9 20.9 V G96 – Mt. Lemmon Survey MPS 503979
2014 02 22.25525 07 53 33.48 +19 31 46.9 20.7 V G96 – Mt. Lemmon Survey MPS 503979
2014 02 22.26134 07 53 33.31 +19 31 48.2 21.0 V G96 – Mt. Lemmon Survey MPS 503979
2014 04 04.11638 08 05 54.80 +20 44 43.1 22.0 V G96 – Mt. Lemmon Survey MPS 509732
2014 04 04.12094 08 05 55.08 +20 44 42.0 21.0 V G96 – Mt. Lemmon Survey MPS 509732
2014 04 04.12549 08 05 55.34 +20 44 41.7 22.5 V G96 – Mt. Lemmon Survey MPS 509732
2014 04 04.13006 08 05 55.50 +20 44 42.1 22.2 V G96 – Mt. Lemmon Survey MPS 509732
2015 05 21.48620 16 50 12.939 -14 17 44.43 21.6 w F51 – Pan-STARRS 1, Haleakala MPS 608529
2015 05 21.49857 16 50 12.197 -14 17 43.15 21.6 w F51 – Pan-STARRS 1, Haleakala MPS 608529
2015 05 21.51092 16 50 11.459 -14 17 41.26 21.3 w F51 – Pan-STARRS 1, Haleakala MPS 608529
2015 05 21.52322 16 50 10.729 -14 17 39.66 21.6 w F51 – Pan-STARRS 1, Haleakala MPS 608529
2015 05 22.48702 16 49 15.120 -14 15 40.79 21.5 w F51 – Pan-STARRS 1, Haleakala MPS 609790
2015 05 22.48778 16 49 15.056 -14 15 40.66 21.4 w F51 – Pan-STARRS 1, Haleakala MPS 609790
2015 05 22.50037 16 49 14.301 -14 15 39.15 21.4 w F51 – Pan-STARRS 1, Haleakala MPS 609790
2015 05 22.51219 16 49 13.607 -14 15 37.85 21.3 w F51 – Pan-STARRS 1, Haleakala MPS 609790
2015 05 22.51292 16 49 13.530 -14 15 37.74 21.4 w F51 – Pan-STARRS 1, Haleakala MPS 609790
2015 05 22.52474 16 49 12.832 -14 15 36.19 21.6 w F51 – Pan-STARRS 1, Haleakala MPS 609790
2015 05 22.52547 16 49 12.769 -14 15 36.25 21.3 w F51 – Pan-STARRS 1, Haleakala MPS 609790
2015 06 23.40570 16 18 20.032 -13 44 31.33 21.8 w F51 – Pan-STARRS 1, Haleakala MPS 614109
2015 06 23.42953 16 18 18.870 -13 44 31.53 21.8 w F51 – Pan-STARRS 1, Haleakala MPS 614109
2015 06 23.44146 16 18 18.291 -13 44 31.73 21.5 w F51 – Pan-STARRS 1, Haleakala MPS 614109
2016 08 02.56430 01 42 56.250 +06 13 05.07 22.0 w F51 – Pan-STARRS 1, Haleakala MPS 723312
2016 08 02.56882 01 42 56.507 +06 13 05.57 21.9 w F51 – Pan-STARRS 1, Haleakala MPS 723312
2016 08 02.58198 01 42 57.223 +06 13 06.94 21.8 w F51 – Pan-STARRS 1, Haleakala MPS 723312
2016 08 02.59069 01 42 57.717 +06 13 08.12 21.8 w F51 – Pan-STARRS 1, Haleakala MPS 723312
2016 08 02.59523 01 42 57.959 +06 13 08.50 22.0 w F51 – Pan-STARRS 1, Haleakala MPS 723312
2016 08 02.60399 01 42 58.431 +06 13 09.30 21.7 w F51 – Pan-STARRS 1, Haleakala MPS 723312
2016 08 02.60851 01 42 58.688 +06 13 09.89 21.8 w F51 – Pan-STARRS 1, Haleakala MPS 723312
2016 09 26.49928 01 57 03.484 +03 37 47.74 20.8 w F51 – Pan-STARRS 1, Haleakala MPS 732202
2016 09 26.51119 01 57 03.037 +03 37 42.74 20.8 w F51 – Pan-STARRS 1, Haleakala MPS 732202
2016 09 26.53494 01 57 02.198 +03 37 32.72 20.8 w F51 – Pan-STARRS 1, Haleakala MPS 732202
2016 09 30.48444 01 54 39.134 +03 08 41.82 20.6 w F51 – Pan-STARRS 1, Haleakala MPS 732202
